Nellis AFB, NV

1:39 PM PST on December 12, 2019 (GMT -0800)
Nellis Air Force Base

Weather History for KLSV - September, 2019

Change the Weather History Date:

Wednesday, September 18, 2019

  Actual Average Record
Temperature  
Mean Temperature 76 °F -  
Max Temperature 93 °F 92 °F 102 °F (2000)
Min Temperature 60 °F 66 °F 57 °F (1996)
Cooling Degree Days 12    
Growing Degree Days 26 (Base 50)    
Moisture  
Dew Point 27 °F    
Average Humidity 16    
Maximum Humidity 28    
Minimum Humidity 8    
Precipitation  
Precipitation 0.00 in - - ()
Sea Level Pressure  
Sea Level Pressure 29.75 in    
Wind  
Wind Speed 4 mph (SSE)    
Max Wind Speed 17 mph    
Max Gust Speed 25 mph    
Visibility 10 miles    
Events      
Averages and records for this station are not official NWS values.
T = Trace of Precipitation, MM = Missing Value Source: NWS Daily Summary

Daily Weather History Graph

Daily Weather History Graph

Search for Another Location

Airport or City:

Astronomy

Sep. 18, 2019 Rise Set
Actual Time 6:24 AM PDT 6:43 PM PDT
Civil Twilight 5:59 AM PDT 7:08 PM PDT
Nautical Twilight 5:28 AM PDT 7:38 PM PDT
Astronomical Twilight 4:58 AM PDT 8:09 PM PDT
Moon 9:26 PM PDT (9/18) 10:25 AM PDT (9/18)
Length of Visible Light 13h 09m
Length of Day
12h 18m
Waning Gibbous, 82% of the Moon is Illuminated
Sep 18
Waning Gibbous
Sep 21
Last Quarter
Sep 28
New
Oct 5
First Quarter
Oct 13
Full

Hourly Weather History & Observations

Time (PDT) Temp. Dew Point Humidity Pressure Visibility Wind Dir Wind Speed Gust Speed Precip Events Conditions
12:58 AM 75.6 °F 25.0 °F 15% 29.79 in 10.0 mi SE 3.5 mph - N/A   Clear
1:58 AM 70.5 °F 25.0 °F 18% 29.80 in 10.0 mi ENE 1.2 mph - N/A   Clear
2:58 AM 66.0 °F 24.6 °F 21% 29.79 in 10.0 mi East 1.2 mph - N/A   Clear
3:58 AM 64.9 °F 23.7 °F 21% 29.77 in 10.0 mi Variable 2.3 mph - N/A   Clear
4:58 AM 61.9 °F 26.6 °F 26% 29.80 in 10.0 mi North 2.3 mph - N/A   Clear
5:58 AM 60.4 °F 24.4 °F 25% 29.82 in 10.0 mi NE 2.3 mph - N/A   Clear
6:58 AM 60.1 °F 26.8 °F 28% 29.83 in 10.0 mi NE 4.6 mph - N/A   Clear
7:58 AM 65.8 °F 28.9 °F 25% 29.85 in 10.0 mi Calm Calm - N/A   Clear
8:58 AM 71.6 °F 30.7 °F 22% 29.85 in 10.0 mi Calm Calm - N/A   Clear
9:58 AM 76.8 °F 30.0 °F 18% 29.86 in 10.0 mi Calm Calm - N/A   Clear
10:58 AM 81.3 °F 30.7 °F 16% 29.84 in 10.0 mi Calm Calm - N/A   Clear
11:58 AM 85.1 °F 30.6 °F 14% 29.80 in 10.0 mi South 4.6 mph - N/A   Clear
12:58 PM 87.6 °F 30.7 °F 13% 29.78 in 10.0 mi ENE 6.9 mph - N/A   Clear
2:58 PM 91.4 °F 29.5 °F 11% 29.71 in 10.0 mi South 10.4 mph - N/A   Clear
3:58 PM 93.0 °F 25.9 °F 9% 29.68 in 10.0 mi South 10.4 mph - N/A   Clear
4:22 PM 93.2 °F 26.6 °F 9% 29.68 in 10.0 mi South 15.0 mph 25.3 mph N/A   Clear
4:58 PM 93.0 °F 23.0 °F 8% 29.67 in 10.0 mi SW 17.3 mph 23.0 mph N/A   Clear
6:58 PM 86.9 °F 26.1 °F 11% 29.68 in 10.0 mi SSW 9.2 mph - N/A   Clear
7:55 PM 85.3 °F 25.9 °F 12% 29.65 in 10.0 mi SSW 10.4 mph - N/A   Clear
8:55 PM 83.5 °F 27.3 °F 13% 29.64 in 10.0 mi SSW 10.4 mph - N/A   Clear
9:55 PM 81.7 °F 27.1 °F 14% 29.64 in 10.0 mi SSW 6.9 mph - N/A   Clear
10:55 PM 79.9 °F 27.1 °F 14% 29.64 in 10.0 mi South 6.9 mph - N/A   Clear
11:55 PM 80.1 °F 27.0 °F 14% 29.63 in 10.0 mi South 9.2 mph - N/A   Clear